{"data":{"norad_id":56382,"epoch":"2026-05-24T23:22:56.196192Z","epoch_age_seconds":74309,"freshness":"FRESH","line1":"1 56382U 23061J   26144.97426153 -.00000883  00000+0 -22574-4 0  9994","line2":"2 56382  43.0006 127.3168 0000737 252.0600 108.0171 15.27565902168419","mean_motion":15.27565902,"eccentricity":7.37e-5,"inclination_deg":43.0006,"raan_deg":127.3168,"arg_perigee_deg":252.06,"mean_anomaly_deg":108.0171,"bstar":-2.2574e-5,"rev_number":16841,"period_min":94.267618707294,"perigee_km":482.58563832154,"apogee_km":483.59698337456,"semimajor_km":6861.228310848,"source":"CELESTRAK","updated_at":"2026-05-25T13:38:18.011619Z"}}